Volver al catálogo

COSMOS 1275 DEB

ActivoPO
NORAD 42099·DEBRIS·🇷🇺 Russia

Lanzado Jun 4, 1981 desde Plesetsk Cosmodrome

Loading…

Próximos Pases (próximas 24 horas)

TLE

EnvejeciendoSource: Space-Track

Época: Sep 7, 2026, 12:35 UTC

1 42099U 81053PK  26250.52440468  .00002356  00000-0  82646-3 0  9994
2 42099  82.8547 322.8043 0030042 127.9932 232.3977 14.34452427548280

Sigue COSMOS 1275 DEB en tiempo real con AllMySat

Download on the App Store